TimeCST,TemperatureF,Dew PointF,Humidity,Sea Level PressureIn,VisibilityMPH,Wind Direction,Wind SpeedMPH,Gust SpeedMPH,PrecipitationIn,Events,Conditions,WindDirDegrees,DateUTC
12:09 AM,42.8,41.0,93,30.28,1.8,WSW,4.6,-,N/A,,Clear,250,2011-11-24 06:09:00
12:17 AM,42.8,41.0,93,30.28,2.0,WSW,4.6,-,N/A,,Clear,250,2011-11-24 06:17:00
12:44 AM,42.8,39.2,87,30.28,1.8,West,4.6,-,N/A,,Clear,260,2011-11-24 06:44:00
12:51 AM,43.0,41.0,93,30.27,1.8,West,3.5,-,N/A,,Clear,260,2011-11-24 06:51:00
1:51 AM,43.0,41.0,93,30.26,0.5,NNE,3.5,-,N/A,Fog,Fog,30,2011-11-24 07:51:00
1:58 AM,42.8,41.0,93,30.26,0.2,NNE,3.5,-,N/A,Fog,Fog,20,2011-11-24 07:58:00
2:03 AM,42.8,39.2,87,30.26,1.0,NNE,4.6,-,N/A,,Clear,20,2011-11-24 08:03:00
2:14 AM,42.8,39.2,87,30.26,0.5,NNE,4.6,-,N/A,Fog,Fog,30,2011-11-24 08:14:00
2:27 AM,42.8,41.0,93,30.26,1.2,Calm,Calm,-,N/A,,Clear,0,2011-11-24 08:27:00
2:51 AM,39.9,37.9,93,30.26,0.8,Calm,Calm,-,N/A,,Clear,0,2011-11-24 08:51:00
3:07 AM,39.2,37.4,93,30.26,1.0,West,3.5,-,N/A,,Clear,260,2011-11-24 09:07:00
3:38 AM,41.0,37.4,87,30.26,0.8,Calm,Calm,-,N/A,,Clear,0,2011-11-24 09:38:00
3:46 AM,39.2,39.2,100,30.26,1.0,Calm,Calm,-,N/A,,Clear,0,2011-11-24 09:46:00
3:51 AM,41.0,39.0,93,30.25,0.8,Calm,Calm,-,N/A,,Clear,0,2011-11-24 09:51:00
4:13 AM,41.0,39.2,93,30.25,2.0,Calm,Calm,-,N/A,,Clear,0,2011-11-24 10:13:00
4:25 AM,42.8,39.2,87,30.25,2.0,Calm,Calm,-,N/A,,Scattered Clouds,0,2011-11-24 10:25:00
4:28 AM,42.8,39.2,87,30.25,1.8,Calm,Calm,-,N/A,,Mostly Cloudy,0,2011-11-24 10:28:00
4:34 AM,42.8,39.2,87,30.25,0.2,Calm,Calm,-,N/A,Fog,Fog,0,2011-11-24 10:34:00
4:51 AM,41.0,39.9,96,30.25,0.2,Calm,Calm,-,N/A,Fog,Fog,0,2011-11-24 10:51:00
5:07 AM,39.2,37.4,93,30.25,0.2,Calm,Calm,-,N/A,Fog,Fog,0,2011-11-24 11:07:00
5:51 AM,39.0,37.9,96,30.26,0.2,Calm,Calm,-,N/A,Fog,Fog,0,2011-11-24 11:51:00
6:07 AM,37.4,37.4,100,30.27,0.5,West,3.5,-,N/A,Fog,Fog,280,2011-11-24 12:07:00
6:16 AM,39.2,37.4,93,30.27,1.0,West,4.6,-,N/A,,Clear,270,2011-11-24 12:16:00
6:39 AM,37.4,35.6,93,30.28,1.0,West,4.6,-,N/A,,Mist,270,2011-11-24 12:39:00
6:46 AM,37.4,37.4,100,30.28,0.5,Calm,Calm,-,N/A,Fog,Fog,0,2011-11-24 12:46:00
6:51 AM,39.0,37.0,93,30.28,0.5,Calm,Calm,-,N/A,Fog,Fog,0,2011-11-24 12:51:00
7:39 AM,39.2,37.4,93,30.29,0.2,Calm,Calm,-,N/A,Fog,Fog,0,2011-11-24 13:39:00
7:51 AM,41.0,39.9,96,30.30,0.1,Calm,Calm,-,N/A,Fog,Fog,0,2011-11-24 13:51:00
8:24 AM,44.6,42.8,93,30.32,0.1,Calm,Calm,-,N/A,Fog,Fog,0,2011-11-24 14:24:00
8:51 AM,48.0,46.0,93,30.32,1.0,Calm,Calm,-,N/A,,Clear,0,2011-11-24 14:51:00
8:53 AM,48.2,46.4,93,30.32,2.0,Calm,Calm,-,N/A,,Clear,0,2011-11-24 14:53:00
9:35 AM,51.8,48.2,88,30.32,4.0,SSE,4.6,-,N/A,,Clear,150,2011-11-24 15:35:00
9:51 AM,53.1,48.9,86,30.32,4.0,SSE,3.5,-,N/A,,Clear,150,2011-11-24 15:51:00
10:51 AM,60.1,52.0,75,30.31,9.0,SSE,8.1,-,N/A,,Clear,160,2011-11-24 16:51:00
11:51 AM,63.0,52.0,67,30.28,10.0,South,10.4,-,N/A,,Clear,170,2011-11-24 17:51:00
12:51 PM,64.9,52.0,63,30.22,10.0,SE,10.4,-,N/A,,Clear,130,2011-11-24 18:51:00
1:51 PM,66.9,53.1,61,30.20,10.0,SSE,9.2,-,N/A,,Clear,160,2011-11-24 19:51:00
2:51 PM,68.0,52.0,56,30.19,10.0,SE,10.4,-,N/A,,Clear,140,2011-11-24 20:51:00
3:51 PM,68.0,51.1,55,30.17,10.0,ESE,9.2,-,N/A,,Clear,120,2011-11-24 21:51:00
4:51 PM,64.9,50.0,58,30.18,10.0,SE,8.1,-,N/A,,Clear,140,2011-11-24 22:51:00
5:51 PM,59.0,48.9,69,30.17,10.0,East,8.1,-,N/A,,Clear,100,2011-11-24 23:51:00
6:51 PM,57.0,51.1,81,30.19,10.0,ESE,9.2,-,N/A,,Clear,110,2011-11-25 00:51:00
7:51 PM,54.0,50.0,86,30.19,9.0,ESE,9.2,-,N/A,,Clear,120,2011-11-25 01:51:00
8:51 PM,52.0,48.9,89,30.19,7.0,SE,9.2,-,N/A,,Clear,130,2011-11-25 02:51:00
9:13 PM,51.8,48.2,88,30.19,6.0,SE,8.1,-,N/A,,Partly Cloudy,130,2011-11-25 03:13:00
9:36 PM,51.8,48.2,88,30.19,6.0,SE,6.9,-,N/A,,Mostly Cloudy,130,2011-11-25 03:36:00
9:51 PM,51.1,48.0,89,30.18,6.0,SE,5.8,-,N/A,,Mostly Cloudy,130,2011-11-25 03:51:00
10:51 PM,51.1,48.0,89,30.16,6.0,SSE,10.4,-,N/A,,Mostly Cloudy,150,2011-11-25 04:51:00
11:51 PM,52.0,48.9,89,30.16,6.0,SSE,12.7,-,N/A,,Clear,150,2011-11-25 05:51:00